| time (UTC) | temp F | wind direction | speed knots | gust knots | rain 1hr in | rain 24hr in | rain mn in | humidity % | barometer mb |
| 20260507095530 | 53 | 236 | 0.0 | 1.7 | 0.00 | 0.11 | 0.00 | 84 | 1018.6 |
| 20260507094527 | 53 | 20 | 0.9 | 2.6 | 0.00 | 0.11 | 0.00 | 84 | 1018.2 |
| 20260507093523 | 53 | 6 | 0.9 | 2.6 | 0.00 | 0.11 | 0.00 | 83 | 1018.1 |
| 20260507092522 | 53 | 48 | 0.9 | 2.6 | 0.00 | 0.11 | 0.00 | 82 | 1018.0 |
| 20260507091520 | 54 | 76 | 0.9 | 1.7 | 0.00 | 0.11 | 0.00 | 81 | 1018.2 |
| 20260507090525 | 54 | 25 | 1.7 | 3.5 | 0.00 | 0.11 | 0.00 | 81 | 1018.2 |
| 20260507085530 | 55 | 27 | 1.7 | 3.5 | 0.00 | 0.11 | 0.00 | 81 | 1018.0 |
| 20260507084518 | 55 | 5 | 1.7 | 3.5 | 0.00 | 0.11 | 0.00 | 80 | 1017.8 |
| 20260507083520 | 55 | 52 | 2.6 | 5.2 | 0.00 | 0.11 | 0.00 | 80 | 1017.5 |
| 20260507082519 | 55 | 70 | 1.7 | 5.2 | 0.00 | 0.11 | 0.00 | 79 | 1017.7 |
| 20260507081528 | 56 | 33 | 2.6 | 7.0 | 0.00 | 0.11 | 0.00 | 79 | 1017.8 |
| 20260507080549 | 56 | 8 | 1.7 | 3.5 | 0.00 | 0.11 | 0.00 | 80 | 1017.8 |
| 20260507075530 | 56 | 27 | 1.7 | 5.2 | 0.00 | 0.11 | 0.00 | 78 | 1017.8 |
| 20260507074044 | 56 | 34 | 2.6 | 6.1 | 0.00 | 0.11 | 0.00 | 78 | 1017.6 |
| 20260507073028 | 57 | 11 | 3.5 | 7.0 | 0.00 | 0.11 | 0.00 | 78 | 1017.3 |
| 20260507072033 | 57 | 73 | 2.6 | 5.2 | 0.00 | 0.11 | 0.00 | 79 | 1017.1 |
| 20260507071039 | 57 | 60 | 3.5 | 5.2 | 0.00 | 0.11 | 0.00 | 79 | 1016.9 |
| 20260507070030 | 58 | 66 | 3.5 | 6.1 | 0.00 | 0.11 | 0.00 | 78 | 1017.0 |
| 20260507065024 | 58 | 62 | 3.5 | 7.0 | 0.00 | 0.11 | 0.00 | 76 | 1016.9 |
| 20260507064023 | 59 | 53 | 5.2 | 8.7 | 0.00 | 0.11 | 0.00 | 75 | 1017.0 |
| 20260507063028 | 59 | 52 | 5.2 | 8.7 | 0.00 | 0.11 | 0.00 | 75 | 1017.1 |
| 20260507062024 | 59 | 58 | 4.3 | 9.6 | 0.00 | 0.11 | 0.00 | 76 | 1017.0 |
| 20260507061034 | 59 | 56 | 3.5 | 7.0 | 0.00 | 0.11 | 0.00 | 77 | 1017.0 |
| 20260507060020 | 59 | 61 | 4.3 | 7.0 | 0.00 | 0.11 | 0.00 | 77 | 1016.8 |
| 20260507055025 | 59 | 42 | 4.3 | 8.7 | 0.00 | 0.11 | 0.00 | 76 | 1016.9 |
| 20260507054102 | 59 | 60 | 4.3 | 7.8 | 0.00 | 0.11 | 0.00 | 76 | 1017.0 |
| 20260507053037 | 60 | 65 | 5.2 | 7.8 | 0.00 | 0.11 | 0.00 | 77 | 1017.0 |
| 20260507052045 | 60 | 62 | 4.3 | 7.8 | 0.00 | 0.11 | 0.00 | 77 | 1017.0 |
| 20260507051026 | 60 | 59 | 3.5 | 7.0 | 0.00 | 0.11 | 0.00 | 77 | 1017.0 |
| 20260507050041 | 59 | 56 | 3.5 | 7.0 | 0.00 | 0.11 | 0.11 | 78 | 1017.0 |
| 20260507045023 | 59 | 55 | 4.3 | 7.0 | 0.00 | 0.11 | 0.11 | 78 | 1017.0 |
| 20260507044518 | 59 | 55 | 3.5 | 7.0 | 0.00 | 0.11 | 0.11 | 78 | 1017.1 |
| 20260507043540 | 59 | 63 | 4.3 | 7.0 | 0.00 | 0.11 | 0.11 | 78 | 1017.2 |
| 20260507042527 | 59 | 59 | 4.3 | 7.8 | 0.00 | 0.11 | 0.11 | 78 | 1017.3 |
| 20260507041530 | 59 | 59 | 3.5 | 7.0 | 0.00 | 0.11 | 0.11 | 78 | 1017.4 |
| 20260507040531 | 59 | 61 | 4.3 | 7.0 | 0.00 | 0.11 | 0.11 | 78 | 1017.3 |
| 20260507035526 | 59 | 69 | 5.2 | 11.3 | 0.00 | 0.11 | 0.11 | 79 | 1017.3 |
| 20260507034601 | 60 | 66 | 4.3 | 8.7 | 0.00 | 0.11 | 0.11 | 79 | 1017.4 |
| 20260507033516 | 60 | 62 | 4.3 | 9.6 | 0.00 | 0.11 | 0.11 | 79 | 1017.3 |
| 20260507032530 | 60 | 68 | 4.3 | 7.8 | 0.00 | 0.11 | 0.11 | 79 | 1017.2 |
| 20260507031609 | 60 | 80 | 1.7 | 3.5 | 0.00 | 0.11 | 0.11 | 80 | 1017.2 |
| 20260507030604 | 60 | 65 | 0.9 | 2.6 | 0.00 | 0.11 | 0.11 | 81 | 1017.1 |
| 20260507025518 | 60 | 39 | 1.7 | 5.2 | 0.00 | 0.11 | 0.11 | 81 | 1016.9 |
| 20260507024528 | 60 | 74 | 2.6 | 5.2 | 0.00 | 0.11 | 0.11 | 80 | 1016.8 |
| 20260507023524 | 60 | 78 | 2.6 | 6.1 | 0.00 | 0.11 | 0.11 | 79 | 1016.5 |
| 20260507022516 | 60 | 68 | 3.5 | 6.1 | 0.00 | 0.11 | 0.11 | 79 | 1016.3 |
| 20260507021607 | 61 | 65 | 3.5 | 6.1 | 0.00 | 0.11 | 0.11 | 79 | 1016.0 |
| 20260507020522 | 61 | 80 | 2.6 | 6.1 | 0.00 | 0.11 | 0.11 | 79 | 1015.9 |
| 20260507015518 | 61 | 65 | 3.5 | 7.8 | 0.00 | 0.11 | 0.11 | 79 | 1015.6 |
| 20260507014528 | 61 | 78 | 2.6 | 7.0 | 0.00 | 0.11 | 0.11 | 79 | 1015.4 |
| 20260507013523 | 61 | 23 | 2.6 | 6.1 | 0.00 | 0.11 | 0.11 | 78 | 1015.2 |
| 20260507012518 | 62 | 65 | 0.9 | 2.6 | 0.00 | 0.11 | 0.11 | 79 | 1014.9 |
| 20260507011548 | 62 | 81 | 2.6 | 3.5 | 0.00 | 0.11 | 0.11 | 79 | 1014.7 |
| 20260507010544 | 62 | 65 | 1.7 | 3.5 | 0.00 | 0.11 | 0.11 | 79 | 1014.6 |
| 20260507005539 | 62 | 78 | 1.7 | 2.6 | 0.00 | 0.11 | 0.11 | 78 | 1014.5 |
| 20260507004549 | 63 | 81 | 1.7 | 2.6 | 0.00 | 0.11 | 0.11 | 77 | 1014.6 |
| 20260507003524 | 63 | 71 | 1.7 | 3.5 | 0.00 | 0.11 | 0.11 | 77 | 1014.7 |
| 20260507002519 | 63 | 58 | 0.9 | 2.6 | 0.00 | 0.11 | 0.11 | 76 | 1014.5 |
| 20260507001530 | 64 | 61 | 1.7 | 2.6 | 0.07 | 0.11 | 0.11 | 76 | 1014.4 |
| 20260507000525 | 64 | 76 | 0.9 | 1.7 | 0.11 | 0.11 | 0.11 | 77 | 1014.4 |
| 20260506235520 | 64 | 75 | 0.9 | 2.6 | 0.11 | 0.11 | 0.11 | 75 | 1014.2 |
| 20260506234536 | 64 | 22 | 0.9 | 2.6 | 0.11 | 0.11 | 0.11 | 75 | 1014.3 |
| 20260506233526 | 64 | 296 | 0.9 | 3.5 | 0.11 | 0.11 | 0.11 | 75 | 1013.9 |
| 20260506232522 | 64 | 331 | 2.6 | 6.1 | 0.11 | 0.11 | 0.11 | 71 | 1013.8 |
| 20260506231517 | 66 | 67 | 2.6 | 7.8 | 0.04 | 0.04 | 0.04 | 64 | 1013.9 |
| 20260506230527 | 67 | 258 | 2.6 | 6.1 | 0.00 | 0.00 | 0.00 | 59 | 1014.0 |
| 20260506225522 | 67 | 68 | 2.6 | 6.1 | 0.00 | 0.00 | 0.00 | 59 | 1013.7 |
| 20260506224517 | 67 | 240 | 1.7 | 3.5 | 0.00 | 0.00 | 0.00 | 59 | 1013.9 |
| 20260506223548 | 68 | 8 | 1.7 | 6.1 | 0.00 | 0.00 | 0.00 | 58 | 1013.9 |
| 20260506222523 | 68 | 281 | 2.6 | 6.1 | 0.00 | 0.00 | 0.00 | 56 | 1013.6 |
| 20260506221518 | 68 | 81 | 1.7 | 7.0 | 0.00 | 0.00 | 0.00 | 57 | 1013.4 |
| 20260506220529 | 68 | 283 | 2.6 | 9.6 | 0.00 | 0.00 | 0.00 | 57 | 1013.8 |
| 20260506215544 | 68 | 50 | 1.7 | 5.2 | 0.00 | 0.00 | 0.00 | 57 | 1013.5 |
| 20260506214519 | 68 | 326 | 2.6 | 7.0 | 0.00 | 0.00 | 0.00 | 56 | 1013.7 |
| 20260506213530 | 69 | 261 | 2.6 | 7.8 | 0.00 | 0.00 | 0.00 | 55 | 1013.6 |
| 20260506212525 | 70 | 54 | 1.7 | 5.2 | 0.00 | 0.00 | 0.00 | 54 | 1013.5 |
| 20260506211520 | 69 | 28 | 2.6 | 7.0 | 0.00 | 0.00 | 0.00 | 54 | 1013.7 |
| 20260506210515 | 70 | 326 | 2.6 | 7.8 | 0.00 | 0.00 | 0.00 | 52 | 1013.6 |
| 20260506205606 | 70 | 339 | 2.6 | 7.8 | 0.00 | 0.00 | 0.00 | 53 | 1013.8 |
| 20260506204521 | 70 | 335 | 1.7 | 8.7 | 0.00 | 0.00 | 0.00 | 54 | 1013.8 |
| 20260506203516 | 70 | 260 | 2.6 | 8.7 | 0.00 | 0.00 | 0.00 | 54 | 1014.0 |
| 20260506202527 | 69 | 354 | 2.6 | 7.8 | 0.00 | 0.00 | 0.00 | 55 | 1014.4 |
| 20260506201522 | 67 | 10 | 2.6 | 6.1 | 0.00 | 0.00 | 0.00 | 58 | 1014.2 |
| 20260506200537 | 67 | 16 | 2.6 | 9.6 | 0.00 | 0.00 | 0.00 | 57 | 1014.6 |
| 20260506195608 | 67 | 323 | 2.6 | 6.1 | 0.00 | 0.00 | 0.00 | 59 | 1014.7 |
| 20260506194523 | 66 | 58 | 2.6 | 7.8 | 0.00 | 0.00 | 0.00 | 60 | 1014.6 |
| 20260506193518 | 65 | 28 | 2.6 | 5.2 | 0.00 | 0.00 | 0.00 | 61 | 1014.6 |
| 20260506192529 | 64 | 246 | 2.6 | 8.7 | 0.00 | 0.00 | 0.00 | 63 | 1014.6 |
| 20260506191525 | 63 | 252 | 2.6 | 7.8 | 0.00 | 0.00 | 0.00 | 65 | 1014.7 |
| 20260506190520 | 62 | 209 | 1.7 | 3.5 | 0.00 | 0.00 | 0.00 | 65 | 1015.1 |
| 20260506185530 | 63 | 259 | 4.3 | 7.8 | 0.00 | 0.00 | 0.00 | 64 | 1015.2 |
| 20260506184525 | 63 | 254 | 3.5 | 7.0 | 0.00 | 0.00 | 0.00 | 65 | 1015.0 |
| 20260506183541 | 62 | 231 | 0.9 | 5.2 | 0.00 | 0.00 | 0.00 | 66 | 1014.8 |
| 20260506182516 | 62 | 322 | 0.9 | 3.5 | 0.00 | 0.00 | 0.00 | 66 | 1015.0 |
| 20260506181526 | 62 | 49 | 2.6 | 7.8 | 0.00 | 0.00 | 0.00 | 65 | 1015.0 |
| 20260506180521 | 63 | 284 | 3.5 | 8.7 | 0.00 | 0.00 | 0.00 | 64 | 1014.4 |
| 20260506175537 | 63 | 13 | 4.3 | 12.2 | 0.00 | 0.00 | 0.00 | 65 | 1013.6 |
| 20260506174648 | 64 | 38 | 5.2 | 19.1 | 0.00 | 0.00 | 0.00 | 64 | 1013.2 |
| 20260506173522 | 63 | 360 | 2.6 | 9.6 | 0.00 | 0.00 | 0.00 | 66 | 1013.5 |
| 20260506172518 | 63 | 75 | 2.6 | 8.7 | 0.00 | 0.00 | 0.00 | 66 | 1014.1 |
| 20260506171528 | 62 | 21 | 4.3 | 7.8 | 0.00 | 0.00 | 0.00 | 67 | 1014.3 |
| 20260506170523 | 61 | 351 | 3.5 | 9.6 | 0.00 | 0.00 | 0.00 | 69 | 1014.5 |
| 20260506165518 | 60 | 27 | 2.6 | 7.0 | 0.00 | 0.00 | 0.00 | 70 | 1015.0 |
| 20260506164529 | 61 | 28 | 4.3 | 12.2 | 0.00 | 0.00 | 0.00 | 68 | 1014.8 |
| 20260506163544 | 62 | 49 | 5.2 | 12.2 | 0.00 | 0.00 | 0.00 | 66 | 1014.2 |
| 20260506162519 | 65 | 23 | 4.3 | 12.2 | 0.00 | 0.00 | 0.00 | 62 | 1014.3 |
| 20260506161549 | 66 | 61 | 4.3 | 8.7 | 0.00 | 0.00 | 0.00 | 61 | 1014.1 |
| 20260506160524 | 64 | 68 | 5.2 | 11.3 | 0.00 | 0.00 | 0.00 | 65 | 1014.4 |
| 20260506155520 | 60 | 25 | 4.3 | 8.7 | 0.00 | 0.00 | 0.00 | 73 | 1014.6 |
| 20260506154515 | 59 | 63 | 0.9 | 3.5 | 0.00 | 0.00 | 0.00 | 75 | 1014.7 |
| 20260506153546 | 58 | 33 | 2.6 | 6.1 | 0.00 | 0.00 | 0.00 | 74 | 1014.3 |
| 20260506152601 | 58 | 321 | 2.6 | 7.8 | 0.00 | 0.00 | 0.00 | 75 | 1014.8 |
| 20260506151516 | 58 | 291 | 2.6 | 8.7 | 0.00 | 0.00 | 0.00 | 77 | 1014.8 |
| 20260506150526 | 57 | 286 | 2.6 | 8.7 | 0.00 | 0.00 | 0.00 | 75 | 1015.1 |
| 20260506145521 | 58 | 269 | 4.3 | 8.7 | 0.00 | 0.00 | 0.00 | 72 | 1016.3 |
| 20260506144516 | 58 | 250 | 2.6 | 6.1 | 0.00 | 0.00 | 0.00 | 71 | 1015.9 |
| 20260506143526 | 58 | 260 | 2.6 | 6.1 | 0.00 | 0.00 | 0.00 | 71 | 1015.3 |
| 20260506142521 | 58 | 134 | 2.6 | 9.6 | 0.00 | 0.00 | 0.00 | 70 | 1014.4 |
| 20260506141517 | 59 | 357 | 3.5 | 11.3 | 0.00 | 0.00 | 0.00 | 68 | 1014.2 |
| 20260506140527 | 60 | 0 | 3.5 | 9.6 | 0.00 | 0.00 | 0.00 | 66 | 1014.2 |
| 20260506135522 | 60 | 263 | 5.2 | 9.6 | 0.00 | 0.00 | 0.00 | 66 | 1014.2 |
| 20260506134537 | 60 | 275 | 3.5 | 12.2 | 0.00 | 0.00 | 0.00 | 64 | 1014.0 |
| 20260506133528 | 60 | 257 | 3.5 | 7.8 | 0.00 | 0.00 | 0.00 | 64 | 1013.8 |
| 20260506132603 | 60 | 275 | 2.6 | 7.8 | 0.00 | 0.00 | 0.00 | 64 | 1013.7 |
| 20260506131518 | 60 | 221 | 2.6 | 7.8 | 0.00 | 0.00 | 0.00 | 65 | 1013.1 |
| 20260506130528 | 60 | 244 | 4.3 | 9.6 | 0.00 | 0.00 | 0.00 | 65 | 1013.1 |
| 20260506125523 | 60 | 45 | 2.6 | 7.0 | 0.00 | 0.00 | 0.00 | 65 | 1013.0 |
| 20260506124519 | 60 | 242 | 3.5 | 7.8 | 0.00 | 0.00 | 0.00 | 66 | 1013.1 |
| 20260506123529 | 60 | 245 | 3.5 | 8.7 | 0.00 | 0.00 | 0.00 | 67 | 1012.8 |
| 20260506122523 | 60 | 250 | 3.5 | 9.6 | 0.00 | 0.00 | 0.00 | 67 | 1012.7 |
| 20260506121519 | 60 | 247 | 4.3 | 9.6 | 0.00 | 0.00 | 0.00 | 67 | 1012.6 |
| 20260506120529 | 60 | 325 | 2.6 | 7.0 | 0.00 | 0.00 | 0.00 | 68 | 1012.4 |
| 20260506115524 | 60 | 238 | 1.7 | 6.1 | 0.00 | 0.00 | 0.00 | 68 | 1012.5 |
| 20260506114519 | 60 | 9 | 3.5 | 8.7 | 0.00 | 0.00 | 0.00 | 68 | 1012.3 |
| 20260506113529 | 60 | 227 | 2.6 | 6.1 | 0.00 | 0.00 | 0.00 | 68 | 1012.1 |
| 20260506112525 | 61 | 245 | 4.3 | 11.3 | 0.00 | 0.00 | 0.00 | 68 | 1011.9 |
| 20260506111519 | 61 | 259 | 2.6 | 7.0 | 0.00 | 0.00 | 0.00 | 68 | 1011.6 |
| 20260506110530 | 61 | 259 | 4.3 | 7.8 | 0.00 | 0.00 | 0.00 | 68 | 1011.7 |
| 20260506105525 | 61 | 22 | 2.6 | 7.0 | 0.00 | 0.00 | 0.00 | 69 | 1011.3 |
| 20260506104521 | 61 | 11 | 3.5 | 7.0 | 0.00 | 0.00 | 0.00 | 69 | 1011.3 |
| 20260506103516 | 62 | 331 | 2.6 | 6.1 | 0.00 | 0.00 | 0.00 | 68 | 1011.1 |
| 20260506102526 | 61 | 222 | 2.6 | 6.1 | 0.00 | 0.00 | 0.00 | 68 | 1010.9 |
| 20260506101521 | 62 | 275 | 1.7 | 3.5 | 0.00 | 0.00 | 0.00 | 68 | 1010.7 |
| 20260506100516 | 62 | 7 | 2.6 | 8.7 | 0.00 | 0.00 | 0.00 | 67 | 1010.6 |